SCP
0 0 0 0 0 0 0 0 0 0 0 0 0 0 0 0 0 0 0 0 0 0 0 0 0 0 0 0 0 0 0 0 0 0 0 0 0 0 0 0 0 0 0 0
0 0 0 0 0 0 0 0 0 0 0 0 0 0 0 0 0 0 0 0 0 0 0 0 0 0 0 0 0 0 0 0 0 0 0 0 0 0 0 0 0 0 0 0
0 0 0 0 0 0 0 0 0 0 0 0 0 0 0 0 0 0 0 0 0 0 0 0 0 0 0 0 0 0 0 0 0 0 0 0 0 0 0 0 0 0 0 0
0 0 0 0 0 0 0 0 0 0 0 0 0 0 0 0 0 0 0 0 0 0 0 0 0 0 0 0 0 0 0 0 0 0 0 0 0 0 0 0 0 0 0 0
0 -0 0 0 0 0 0 0 0 0 0 0 0 0 0 0 0 0 0 0 0 0 0 0 0 0 0 0 0 0 0 0 0 0 0 0 0 0 0 0 0 0 0 0
0 -0 0 0 0 0 0 0 0 0 0 0 0 0 0 0 0 0 0 0 0 0 0 0 0 0 0 0 0 0 0 0 0 0 0 0 0 0 0 0 0 0 0 0
0 -0 0 0 0 0 0 0 0 0 0 0 0 0 0 0 0 0 0 0 0 0 0 0 0 0 0 0 0 0 0 0 0 0 0 0 0 0 0 0 0 0 0 0
0 0 -0 0 0 0 0 0 0 0 0 0 0 0 0 0 0 0 0 0 0 0 0 0 0 0 0 0 0 0 0 0 0 0 0 0 0 0 0 0 0 0 0 0
0 0 0 0 0 0 0 0 0 0 0 0 0 0 0 0 0 0 0 0 0 0 0 0 0 0 0 0 0 0 0 0 0 0 0 0 0 0 0 0 0 0 0 0
0 0 0 0 0 0 0 0 0 0 0 0 0 0 0 0 0 0 0 0 0 0 0 0 0 0 0 0 0 0 0 0 0 0 0 0 0 0 0 0 0 0 0 0
0 0 0 0 0 0 0 0 0 0 0 0 0 0 0 0 0 0 0 0 0 0 0 0 0 0 0 0 0 0 0 0 0 0 0 0 0 1 0 0 0 0 0 0
0 0 0 0 0 0 0 0 0 0 0 0 0 0 0 0 0 0 0 0 0 0 0 0 0 1 0 0 0 0 0 0 0 0 0 0 1 1 1 1 1 0 0 0
0 0 0 0 0 0 0 0 0 0 0 0 0 0 0 0 0 0 0 0 0 0 0 0 1 1 0 0 0 0 0 0 0 0 0 0 1 1 1 1 1 1 1 1
0 0 0 0 0 0 0 0 0 0 0 0 0 0 0 0 0 0 0 0 0 0 0 0 1 1 1 0 0 0 0 0 0 0 0 0 1 1 1 1 1 1 1 1
0 0 0 0 0 0 0 0 0 0 0 0 0 0 0 0 0 0 0 0 0 0 0 0 0 0 0 0 0 0 0 0 0 0 0 0 1 1 1 1 1 1 1 1
0 0 0 0 -0 -0 0 0 0 0 0 0 0 0 0 0 0 0 0 0 1 1 1 1 1 0 0 0 0 1 1 1 1 0 1 1 1 1 1 1 1 1 1 1
0 0 0 0 0 0 0 0 0 0 0 0 0 0 0 0 0 0 0 1 1 1 1 1 1 0 0 0 0 1 1 1 1 1 1 1 1 1 1 1 1 1 1 1
0 0 0 0 0 0 0 0 0 0 0 0 0 0 0 0 0 0 0 0 1 1 1 1 1 0 0 0 0 0 1 1 1 1 1 1 1 1 1 1 1 1 1 1
0 0 0 0 0 0 0 0 0 0 0 0 0 0 0 0 0 0 0 0 0 1 1 1 0 0 0 0 0 0 1 1 1 1 1 1 1 1 1 1 1 1 0 0
0 0 0 0 0 0 0 0 0 0 0 0 0 0 0 0 0 0 0 0 0 0 0 0 0 0 0 0 0 0 0 1 1 1 1 1 1 1 1 0 0 0 0 0
0 0 0 0 0 0 0 0 0 0 0 0 0 0 0 0 0 0 0 0 0 0 0 0 0 0 0 0 0 0 0 0 1 1 0 0 0 0 0 0 0 0 0 0
0 0 0 0 0 0 0 0 0 0 0 0 0 0 0 0 0 0 0 0 0 0 0 0 0 0 0 0 0 0 0 0 0 0 0 0 0 0 0 0 0 0 0 0
0 0 0 0 0 0 0 0 0 0 0 0 0 0 0 0 0 0 0 0 0 0 0 0 0 0 0 0 0 0 0 0 0 0 0 0 0 0 0 0 0 0 0 0
0 0 0 0 0 0 0 0 0 0 0 0 0 0 0 0 0 0 0 0 0 0 0 0 0 0 0 0 0 0 0 0 0 0 0 0 0 0 0 0 0 0 0 0
0 0 0 0 0 0 0 0 0 0 0 0 0 0 0 0 0 0 0 0 0 0 0 0 0 0 0 0 0 0 0 0 0 0 0 0 0 0 0 0 0 0 0 0
0 0 0 0 0 0 0 0 0 0 0 0 0 0 0 0 0 0 0 0 0 0 0 0 0 0 0 0 0 0 0 0 0 0 0 0 0 0 0 0 0 0 0 0
Wind_Speed
3 4 1 4 5 4 2 2 4 5 2 3 2 3 4 6 6 7 7 8 9 9 7 6 7 7 7 6 6 6 6 5 4 2 2 2 1 1 1 1 2 3 3 3
5 2 5 2 2 2 1 2 3 4 1 2 1 2 2 5 7 8 9 10 9 7 5 6 7 7 8 8 7 7 7 6 5 4 3 2 2 1 1 1 1 2 3 3
4 5 1 1 1 0 1 3 3 2 3 4 2 4 2 2 2 3 6 7 7 9 9 8 8 8 8 9 9 8 7 7 6 5 3 2 2 1 1 0 1 1 3 3
2 4 0 0 1 2 4 4 3 2 2 2 1 2 5 2 2 4 6 7 8 8 8 8 8 8 9 9 8 7 7 6 6 6 5 5 4 3 3 2 1 1 2 3
3 1 0 2 4 4 4 1 1 2 3 2 2 1 7 2 3 7 7 7 8 9 10 10 11 10 9 8 8 7 7 6 6 6 6 5 4 3 2 1 1 1 1 2
4 2 2 4 2 2 1 4 5 5 5 1 2 2 6 3 6 5 6 7 8 9 9 9 9 7 7 7 7 7 7 7 7 7 7 7 6 5 3 3 2 2 1 1
4 4 3 1 1 3 5 6 5 6 5 4 2 2 8 6 5 6 6 7 7 8 8 7 8 8 8 8 8 8 8 8 7 7 7 7 7 6 6 5 4 3 2 2
1 5 3 1 4 3 2 7 7 4 4 5 2 4 7 4 4 3 3 3 5 7 7 8 8 8 8 8 8 8 8 8 7 8 7 6 6 5 4 5 4 5 4 4
5 5 4 2 1 6 4 2 5 7 2 1 4 6 8 3 4 3 1 0 3 5 6 6 5 5 6 7 8 8 8 7 7 8 7 6 7 6 6 5 5 4 4 4
7 3 4 3 3 4 4 7 5 6 4 2 5 4 5 6 6 4 2 1 2 1 2 3 4 4 6 6 6 6 7 8 7 7 7 7 7 7 6 5 6 6 5 4
4 3 4 3 1 1 3 4 5 4 5 6 3 7 5 5 5 3 3 2 1 2 2 3 3 4 5 5 5 6 6 6 6 6 6 6 6 6 6 6 6 6 5 5
3 5 2 5 4 1 4 5 6 5 3 4 4 8 4 2 3 2 2 2 1 1 2 3 3 3 4 4 4 4 5 5 6 6 6 6 6 6 7 7 7 6 6 6
5 6 2 6 5 3 1 2 4 5 5 4 4 8 3 3 3 2 1 2 1 1 1 2 2 3 3 3 3 3 4 5 5 5 6 6 6 7 8 8 6 6 6 6
6 5 7 8 7 3 2 2 3 6 4 5 7 7 6 5 4 4 3 2 1 1 1 1 2 2 3 3 3 3 3 3 4 4 5 6 7 7 7 6 6 6 6 6
5 3 3 4 3 3 3 4 4 5 7 8 7 7 7 4 3 3 2 1 1 1 1 0 1 2 2 2 2 2 3 3 3 4 5 6 6 6 5 6 6 6 6 7
4 3 1 1 2 2 3 3 4 4 3 4 3 5 4 2 0 1 1 1 0 0 0 0 1 1 2 3 3 2 3 3 3 4 5 5 5 5 6 5 5 5 6 5
2 4 3 2 2 1 3 4 4 3 3 5 6 6 2 1 1 2 2 1 1 1 1 1 1 2 3 3 3 3 3 2 2 3 4 4 5 5 6 6 5 5 5 5
5 4 3 1 1 4 7 2 2 3 2 3 3 3 3 3 2 2 2 2 2 2 1 2 2 2 3 2 2 2 1 2 2 3 3 3 4 4 4 4 4 4 3 3
4 7 4 3 2 4 5 2 3 3 3 3 3 2 1 1 2 3 2 1 2 2 2 2 2 2 1 2 2 1 1 1 2 2 3 3 3 3 3 4 4 3 2 3
4 5 6 4 3 6 6 4 1 3 3 2 2 3 2 1 1 4 2 2 2 1 0 1 1 1 1 2 1 1 1 1 2 3 2 2 3 3 3 4 3 2 2 3
3 4 3 3 3 7 5 5 1 3 6 4 3 4 3 4 5 4 3 2 1 0 0 0 1 1 1 1 1 1 1 2 3 2 1 1 2 3 4 3 3 3 3 3
4 3 3 3 3 7 3 1 3 5 3 2 3 3 3 4 4 4 3 2 1 0 1 0 0 1 1 0 1 1 2 2 1 0 0 0 1 2 2 2 2 3 3 3
3 5 5 6 7 5 2 3 4 3 3 3 3 3 2 3 4 4 3 2 2 2 1 1 1 0 1 1 1 2 2 1 0 1 0 0 0 0 1 2 3 2 2 2
2 1 2 2 5 5 5 4 3 2 2 3 3 2 2 3 4 4 3 2 2 2 1 1 0 0 1 1 0 1 1 1 1 1 0 0 0 1 1 1 2 2 2 2
3 1 1 3 5 5 5 4 4 4 3 3 2 2 2 3 3 3 3 2 2 1 1 0 1 1 1 1 1 0 1 1 1 1 1 1 1 1 2 2 1 1 2 3
4 5 4 5 5 4 6 6 5 4 4 3 3 3 2 2 3 2 2 2 2 2 1 1 1 1 1 1 1 1 1 2 2 1 1 1 1 1 2 2 2 3 1 1
Wind_Direction
50 69 218 228 202 204 205 219 259 259 232 157 208 243 212 178 186 195 197 197 202 206 197 186 186 179 175 182 182 186 187 183 162 148 154 157 177 184 182 194 188 180 181 174
39 296 250 221 187 184 213 267 281 297 333 131 115 300 213 188 199 199 198 201 204 198 185 189 187 185 184 186 186 187 189 184 178 176 165 161 153 167 179 188 176 180 181 182
181 247 259 127 75 71 272 212 240 267 7 36 65 343 323 252 205 205 212 209 201 198 195 192 190 193 193 191 188 192 192 187 183 170 141 115 88 74 97 151 206 194 183 187
234 268 245 28 279 166 277 250 217 187 91 319 69 295 297 267 239 224 223 212 204 202 197 194 190 192 197 198 188 185 188 188 181 168 165 166 172 183 196 190 195 193 182 190
251 252 183 245 243 188 234 342 80 101 125 42 16 121 293 343 270 249 235 218 206 200 194 196 198 198 196 194 188 184 181 186 182 178 180 181 188 191 178 164 181 210 219 213
252 261 214 227 239 182 149 60 50 50 68 34 278 155 283 255 238 256 235 223 209 203 199 199 199 191 190 191 185 182 183 194 189 185 186 188 190 185 178 184 196 218 224 227
320 313 293 205 26 14 71 77 28 3 15 263 282 176 253 260 247 235 230 221 206 199 194 194 195 192 192 191 189 186 188 197 194 190 192 195 196 190 194 197 200 206 216 223
207 293 281 237 181 186 147 132 152 194 222 277 331 238 257 275 295 266 224 206 190 194 194 197 197 197 194 192 189 187 191 197 194 193 197 195 192 193 202 204 203 207 213 218
177 254 291 267 217 140 129 147 160 134 152 298 288 290 302 314 338 351 13 125 198 198 194 197 194 191 189 190 192 191 191 195 197 197 194 195 195 198 205 203 202 210 212 214
158 230 297 308 54 36 120 141 98 113 141 250 292 282 266 299 309 320 327 288 252 188 171 176 181 187 189 189 188 186 188 195 199 198 202 206 204 205 206 202 205 208 212 211
132 157 309 13 116 206 73 83 98 110 145 159 241 268 233 240 263 271 274 271 223 165 168 170 173 176 170 172 180 188 191 192 194 198 202 207 206 204 202 206 212 212 211 206
134 124 240 267 266 197 153 159 142 144 208 170 183 263 280 252 263 256 286 323 39 154 170 162 158 154 156 162 178 198 198 201 204 198 199 207 206 202 207 213 215 208 212 212
131 114 72 337 335 3 73 137 139 125 121 155 179 260 311 359 350 329 319 340 22 55 95 115 138 154 167 179 191 207 209 215 210 198 200 205 207 209 214 217 215 207 208 211
115 118 164 199 219 214 223 205 160 132 152 199 219 245 294 321 324 322 328 341 15 37 69 110 169 189 193 198 202 223 227 222 217 209 205 209 214 217 221 219 214 210 208 210
98 145 203 226 227 191 213 217 194 188 188 189 222 223 251 262 269 288 317 8 56 55 62 153 208 218 223 225 223 223 230 222 217 214 214 219 217 216 218 217 214 210 208 213
73 137 154 270 233 207 248 251 217 215 196 207 217 248 251 256 343 343 341 52 100 248 188 226 248 251 248 241 236 235 238 232 218 220 224 222 215 212 211 213 212 208 209 211
88 126 121 249 295 37 272 240 200 186 193 176 204 233 224 234 287 268 264 228 238 253 281 265 256 255 258 257 245 232 235 236 229 232 227 220 213 211 211 211 211 214 213 209
139 116 126 148 75 226 242 253 165 159 213 211 213 220 203 212 257 262 242 224 248 249 257 286 288 289 288 280 275 262 229 204 216 227 223 219 214 214 213 206 210 217 210 198
150 136 123 127 180 268 290 262 168 171 256 240 200 215 226 132 360 312 257 213 244 240 246 253 253 254 271 262 245 229 236 222 225 236 232 216 204 200 198 202 204 202 188 192
66 97 115 129 165 226 247 276 249 127 267 264 199 216 220 107 296 271 277 283 268 243 227 275 320 342 321 288 217 173 242 250 258 258 251 230 193 180 188 195 194 191 182 196
45 51 112 158 212 255 263 295 70 169 241 251 223 223 202 214 229 264 294 285 252 225 355 72 62 344 307 312 111 169 242 258 267 269 244 218 187 180 190 190 190 178 168 169
165 148 172 148 195 252 300 50 177 225 263 247 235 224 216 246 266 282 284 274 251 332 354 37 61 323 322 324 149 192 248 269 291 306 282 271 228 205 192 169 177 174 164 165
193 185 185 189 215 251 273 241 256 245 259 267 249 261 230 258 271 272 271 261 252 229 234 227 193 225 309 271 181 201 267 282 111 72 38 341 319 228 166 163 160 157 159 167
269 155 146 263 271 284 292 291 293 285 266 277 272 262 238 247 254 251 242 239 243 251 260 276 143 114 311 305 263 204 222 218 155 131 113 133 140 149 122 131 143 152 170 176
242 183 164 264 282 311 309 299 298 315 317 320 326 313 245 238 252 230 212 210 207 227 259 257 245 239 275 294 337 76 177 155 139 142 142 131 124 122 108 96 101 170 201 197
215 193 187 227 233 226 267 286 301 305 299 295 303 309 304 253 237 217 208 207 199 203 204 181 244 266 292 313 319 298 232 169 150 147 144 135 128 122 127 116 67 47 66 99